Location: Kile Knob Observatory
(38.6083°N, 79.4792°W)
Time: 15:22:09
(UTC-04:00)

Tiangong 2 - Pass Details

Date: 27 May 2019
Orbit: 376 x 389 km, 42.8° (Epoch: 18 June)

Event Time Altitude Azimuth Distance (km) Brightness Sun altitude
Rises 20:55:51 0° 284° (WNW) 2,238 6.7 -4.7°
Reaches altitude 10° 20:58:01 10° 294° (WNW) 1,384 5.7 -5.1°
Maximum altitude 21:00:55 36° 3° (N) 618 2.4 -5.5°
Drops below altitude 10° 21:03:50 10° 72° (ENE) 1,379 3.5 -6.0°
Enters shadow 21:05:35 - 80° (E) 2,069 4.3 -6.3°
